Marysville, MI

6:20 PM EDT on August 23, 2016 (GMT -0400)
Saint Clair County International

Weather History for KPHN - October, 2011

Change the Weather History Date:

Saturday, October 15, 2011

  Actual Average (KMTC) Record (KMTC)
Temperature  
Mean Temperature 50 °F -  
Max Temperature 55 °F 60 °F 80 °F (1958)
Min Temperature 44 °F 44 °F 30 °F (2006)
Degree Days  
Heating Degree Days 16    
Moisture  
Dew Point 37 °F    
Average Humidity 67    
Maximum Humidity 87    
Minimum Humidity 41    
Precipitation  
Precipitation 0.00 in - - ()
Sea Level Pressure  
Sea Level Pressure 29.50 in    
Wind  
Wind Speed 8 mph (WSW)    
Max Wind Speed 21 mph    
Max Gust Speed 37 mph    
Visibility 10 miles    
Events Rain    
Averages and records for this station are not official NWS values.
T = Trace of Precipitation, MM = Missing Value Source: NWS Daily Summary

Daily Weather History Graph

Daily Weather History Graph

Search for Another Location

Airport or City:

Trip Planner

Search our weather history database for the weather conditions in past years. The results will help you decide how hot, cold, wet, or windy it might be!

Date:

Astronomy

Oct. 15, 2011 Rise Set
Actual Time 7:43 AM EDT 6:47 PM EDT
Civil Twilight 7:14 AM EDT 7:16 PM EDT
Nautical Twilight 6:41 AM EDT 7:49 PM EDT
Astronomical Twilight 6:08 AM EDT 8:22 PM EDT
Moon 8:37 PM EDT (10/15) 11:12 AM EDT (10/15)
Length of Visible Light 12h 01m
Length of Day
11h 04m
Waning Gibbous, 89% of the Moon is Illuminated
Oct 15
Waning Gibbous
Oct 19
Last Quarter
Oct 26
New
Nov 2
First Quarter
Nov 10
Full

Hourly Weather History & Observations

Time (EDT) Temp. Windchill Dew Point Humidity Pressure Visibility Wind Dir Wind Speed Gust Speed Precip Events Conditions
12:16 AM 48.2 °F - 37.4 °F 66% 29.47 in 10.0 mi SW 4.6 mph - N/A   Scattered Clouds
12:36 AM 46.4 °F 44.3 °F 37.4 °F 71% 29.47 in 10.0 mi SW 4.6 mph - N/A   Mostly Cloudy
12:56 AM 48.2 °F - 37.4 °F 66% 29.46 in 10.0 mi WSW 4.6 mph - N/A   Mostly Cloudy
1:16 AM 48.2 °F - 37.4 °F 66% 29.46 in 10.0 mi SW 6.9 mph - N/A   Mostly Cloudy
1:36 AM 48.2 °F - 37.4 °F 66% 29.46 in 10.0 mi WSW 5.8 mph - N/A   Mostly Cloudy
1:56 AM 48.2 °F - 37.4 °F 66% 29.46 in 10.0 mi SW 4.6 mph - N/A   Mostly Cloudy
2:16 AM 48.2 °F - 37.4 °F 66% 29.46 in 10.0 mi WSW 4.6 mph - N/A   Overcast
2:36 AM 48.2 °F - 37.4 °F 66% 29.46 in 10.0 mi WSW 8.1 mph - N/A   Overcast
2:56 AM 48.2 °F - 37.4 °F 66% 29.46 in 10.0 mi West 8.1 mph - N/A   Overcast
3:16 AM 48.2 °F - 37.4 °F 66% 29.46 in 10.0 mi West 5.8 mph - N/A   Overcast
3:36 AM 48.2 °F - 37.4 °F 66% 29.46 in 10.0 mi WSW 6.9 mph - N/A   Overcast
3:56 AM 48.2 °F - 37.4 °F 66% 29.45 in 10.0 mi WSW 8.1 mph - N/A Rain Light Rain
4:16 AM 48.2 °F - 37.4 °F 66% 29.45 in 10.0 mi West 10.4 mph 19.6 mph N/A   Overcast
4:36 AM 46.4 °F 41.9 °F 39.2 °F 76% 29.46 in 10.0 mi WSW 9.2 mph 16.1 mph N/A Rain Rain
4:56 AM 46.4 °F 43.5 °F 41.0 °F 81% 29.46 in 10.0 mi WSW 5.8 mph 17.3 mph N/A Rain Rain
5:16 AM 44.6 °F 40.2 °F 41.0 °F 87% 29.46 in 10.0 mi WSW 8.1 mph 16.1 mph N/A   Drizzle
5:36 AM 44.6 °F 40.7 °F 41.0 °F 87% 29.46 in 10.0 mi WSW 6.9 mph - N/A Rain Rain
5:56 AM 44.6 °F 39.7 °F 39.2 °F 81% 29.46 in 7.0 mi West 9.2 mph 20.7 mph N/A Rain Rain
6:16 AM 44.6 °F 41.4 °F 39.2 °F 81% 29.46 in 10.0 mi West 5.8 mph 18.4 mph N/A Rain Rain
6:36 AM 44.6 °F 41.4 °F 39.2 °F 81% 29.46 in 10.0 mi WSW 5.8 mph - N/A Rain Light Rain
6:56 AM 44.6 °F 40.2 °F 41.0 °F 87% 29.46 in 10.0 mi WSW 8.1 mph 16.1 mph N/A Rain Rain
7:16 AM 44.6 °F 41.4 °F 41.0 °F 87% 29.46 in 10.0 mi WSW 5.8 mph 17.3 mph N/A   Light Drizzle
7:36 AM 44.6 °F 39.7 °F 41.0 °F 87% 29.46 in 10.0 mi WSW 9.2 mph 18.4 mph N/A Rain Light Rain
7:56 AM 44.6 °F 40.2 °F 41.0 °F 87% 29.46 in 10.0 mi WSW 8.1 mph 19.6 mph N/A Rain Light Rain
8:16 AM 44.6 °F 40.2 °F 41.0 °F 87% 29.46 in 10.0 mi West 8.1 mph - N/A   Drizzle
8:36 AM 44.6 °F 39.7 °F 41.0 °F 87% 29.46 in 10.0 mi WSW 9.2 mph 19.6 mph N/A   Drizzle
8:56 AM 44.6 °F 40.2 °F 41.0 °F 87% 29.47 in 10.0 mi WSW 8.1 mph 17.3 mph N/A   Drizzle
9:16 AM 44.6 °F 38.8 °F 41.0 °F 87% 29.47 in 10.0 mi WSW 11.5 mph 23.0 mph N/A   Overcast
9:36 AM 46.4 °F 41.1 °F 39.2 °F 76% 29.47 in 10.0 mi West 11.5 mph 33.4 mph N/A   Overcast
9:56 AM 46.4 °F 39.8 °F 39.2 °F 76% 29.49 in 10.0 mi West 16.1 mph 26.5 mph N/A   Overcast
10:16 AM 46.4 °F 39.0 °F 39.2 °F 76% 29.49 in 10.0 mi West 19.6 mph 25.3 mph N/A   Overcast
10:36 AM 46.4 °F 40.7 °F 39.2 °F 76% 29.49 in 10.0 mi West 12.7 mph 26.5 mph N/A   Mostly Cloudy
10:56 AM 46.4 °F 40.4 °F 39.2 °F 76% 29.50 in 10.0 mi West 13.8 mph 26.5 mph N/A   Light Drizzle
11:16 AM 48.2 °F - 39.2 °F 71% 29.50 in 10.0 mi West 13.8 mph 20.7 mph N/A   Overcast
11:36 AM 48.2 °F - 39.2 °F 71% 29.51 in 10.0 mi West 10.4 mph 24.2 mph N/A   Mostly Cloudy
11:56 AM 48.2 °F - 37.4 °F 66% 29.52 in 10.0 mi West 11.5 mph 24.2 mph N/A   Overcast
12:16 PM 50.0 °F - 37.4 °F 62% 29.53 in 10.0 mi West 12.7 mph 25.3 mph N/A   Overcast
12:36 PM 50.0 °F - 35.6 °F 58% 29.53 in 10.0 mi West 10.4 mph 26.5 mph N/A   Overcast
12:56 PM 50.0 °F - 35.6 °F 58% 29.53 in 10.0 mi West 6.9 mph 25.3 mph N/A   Overcast
1:16 PM 50.0 °F - 35.6 °F 58% 29.54 in 10.0 mi West 13.8 mph 23.0 mph N/A   Overcast
1:36 PM 50.0 °F - 33.8 °F 54% 29.54 in 10.0 mi West 11.5 mph 25.3 mph N/A   Overcast
1:56 PM 51.8 °F - 33.8 °F 50% 29.54 in 10.0 mi West 9.2 mph 33.4 mph N/A   Overcast
2:16 PM 51.8 °F - 33.8 °F 50% 29.54 in 10.0 mi West 13.8 mph 24.2 mph N/A   Overcast
2:36 PM 53.6 °F - 33.8 °F 47% 29.54 in 10.0 mi West 11.5 mph 27.6 mph N/A   Overcast
2:56 PM 55.4 °F - 33.8 °F 44% 29.55 in 10.0 mi West 9.2 mph 27.6 mph N/A   Overcast
3:16 PM 55.4 °F - 33.8 °F 44% 29.56 in 10.0 mi West 20.7 mph 29.9 mph N/A   Overcast
3:36 PM 55.4 °F - 32.0 °F 41% 29.56 in 10.0 mi West 16.1 mph 29.9 mph N/A   Mostly Cloudy
3:56 PM 55.4 °F - 32.0 °F 41% 29.57 in 10.0 mi West 16.1 mph 27.6 mph N/A   Scattered Clouds
4:16 PM 55.4 °F - 32.0 °F 41% 29.58 in 10.0 mi West 18.4 mph 28.8 mph N/A   Scattered Clouds
4:36 PM 55.4 °F - 32.0 °F 41% 29.59 in 10.0 mi West 17.3 mph 26.5 mph N/A   Scattered Clouds
4:56 PM 55.4 °F - 32.0 °F 41% 29.60 in 10.0 mi West 16.1 mph 36.8 mph N/A   Mostly Cloudy
5:16 PM 55.4 °F - 32.0 °F 41% 29.61 in 10.0 mi West 12.7 mph 25.3 mph N/A   Mostly Cloudy
5:36 PM 53.6 °F - 32.0 °F 44% 29.62 in 10.0 mi West 12.7 mph 20.7 mph N/A   Scattered Clouds
5:56 PM 53.6 °F - 32.0 °F 44% 29.63 in 10.0 mi West 18.4 mph 33.4 mph N/A   Scattered Clouds
6:16 PM 53.6 °F - 32.0 °F 44% 29.64 in 10.0 mi West 18.4 mph 31.1 mph N/A   Scattered Clouds
6:36 PM 51.8 °F - 32.0 °F 47% 29.66 in 10.0 mi West 11.5 mph 31.1 mph N/A   Scattered Clouds
6:56 PM 51.8 °F - 32.0 °F 47% 29.67 in 10.0 mi West 12.7 mph 18.4 mph N/A   Scattered Clouds
7:16 PM 51.8 °F - 33.8 °F 50% 29.68 in 10.0 mi West 8.1 mph 18.4 mph N/A   Scattered Clouds
7:36 PM 51.8 °F - 33.8 °F 50% 29.69 in 10.0 mi West 6.9 mph - N/A   Mostly Cloudy
7:56 PM 51.8 °F - 33.8 °F 50% 29.70 in 10.0 mi West 9.2 mph - N/A   Mostly Cloudy
8:16 PM 51.8 °F - 33.8 °F 50% 29.71 in 10.0 mi West 9.2 mph - N/A   Scattered Clouds
8:36 PM 50.0 °F - 33.8 °F 54% 29.71 in 10.0 mi WSW 8.1 mph - N/A   Scattered Clouds
8:56 PM 50.0 °F - 33.8 °F 54% 29.72 in 10.0 mi West 8.1 mph - N/A   Clear
9:16 PM 50.0 °F - 33.8 °F 54% 29.73 in 10.0 mi WSW 6.9 mph - N/A   Scattered Clouds
9:36 PM 50.0 °F - 33.8 °F 54% 29.73 in 10.0 mi WSW 3.5 mph - N/A   Mostly Cloudy
9:56 PM 50.0 °F - 33.8 °F 54% 29.74 in 10.0 mi WSW 4.6 mph - N/A   Mostly Cloudy
10:16 PM 50.0 °F - 33.8 °F 54% 29.74 in 10.0 mi SW 4.6 mph - N/A   Scattered Clouds
10:36 PM 50.0 °F - 35.6 °F 58% 29.74 in 10.0 mi WSW 5.8 mph - N/A   Clear
10:56 PM 50.0 °F - 35.6 °F 58% 29.74 in 10.0 mi WSW 4.6 mph - N/A   Clear
11:16 PM 50.0 °F - 35.6 °F 58% 29.74 in 10.0 mi WSW 4.6 mph - N/A   Clear
11:36 PM 50.0 °F - 35.6 °F 58% 29.75 in 10.0 mi WSW 5.8 mph - N/A   Clear
11:56 PM 50.0 °F - 35.6 °F 58% 29.75 in 10.0 mi SW 4.6 mph - N/A   Scattered Clouds